Weather History for Spartanburg, SC

Change the Weather History Date:

Sunday, September 22, 2013

  Actual Average (KGSP) Record (KGSP)
Temperature  
Mean Temperature 69 °F 70 °F  
Max Temperature 78 °F 80 °F 95 °F (1940)
Min Temperature 60 °F 59 °F 40 °F (1983)
Degree Days  
Heating Degree Days 0 1  
Month to date heating degree days 5  
Since 1 July heating degree days 5  
Cooling Degree Days 4 6  
Month to date cooling degree days 191  
Year to date cooling degree days 1626  
Growing Degree Days 19 (Base 50)    
Moisture  
Dew Point 60 °F    
Average Humidity 77    
Maximum Humidity 100    
Minimum Humidity 39    
Precipitation  
Precipitation 0.00 in 0.10 in 1.36 in (2003)
Month to date precipitation 2.52  
Year to date precipitation 35.03  
Snow  
Snow 0.00 in 0.00 in 0.00 in ()
Month to date snowfall 0.0  
Since 1 July snowfall 0.0  
Since 1 September snowfall 0.0  
Snow Depth -    
Sea Level Pressure  
Sea Level Pressure 29.83 in    
Wind  
Wind Speed 4 mph (NNE)    
Max Wind Speed 13 mph    
Max Gust Speed 17 mph    
Visibility 10 miles    
Events      
T = Trace of Precipitation, MM = Missing Value Source: NWS Daily Summary

Daily Weather History Graph

Daily Weather History Graph

Search for Another Location

Airport:

Trip Planner

Search our weather history database for the weather conditions in past years. The results will help you decide how hot, cold, wet, or windy it might be!

Date:

Astronomy

Sep. 22, 2013 Rise Set
Actual Time 7:16 AM EDT 7:24 PM EDT
Civil Twilight 6:50 AM EDT 7:49 PM EDT
Nautical Twilight 6:21 AM EDT 8:18 PM EDT
Astronomical Twilight 5:51 AM EDT 8:48 PM EDT
Moon 9:23 PM EDT (9/22) 10:25 AM EDT (9/22)
Length of Visible Light 12h 58m
Length of Day
12h 08m
Waning Gibbous, 89% of the Moon is Illuminated
Sep 22
Waning Gibbous
Sep 26
Last Quarter
Oct 4
New
Oct 11
First Quarter
Oct 18
Full

Hourly Weather History & Observations

Time (EDT) Temp. Dew Point Humidity Pressure Visibility Wind Dir Wind Speed Gust Speed Precip Events Conditions
12:15 AM 68.0 °F 66.2 °F 94% 29.75 in 10.0 mi NNW 6.9 mph - N/A   Scattered Clouds
12:35 AM 68.0 °F 66.2 °F 94% 29.75 in 10.0 mi NNW 6.9 mph - N/A   Scattered Clouds
12:55 AM 66.2 °F 66.2 °F 100% 29.75 in 10.0 mi NNW 6.9 mph - N/A   Scattered Clouds
1:15 AM 66.2 °F 66.2 °F 100% 29.75 in 10.0 mi NNW 4.6 mph - N/A   Clear
1:35 AM 66.2 °F 64.4 °F 94% 29.75 in 10.0 mi Calm Calm - N/A   Clear
1:55 AM 64.4 °F 64.4 °F 100% 29.76 in 10.0 mi Calm Calm - N/A   Clear
2:15 AM 64.4 °F 64.4 °F 100% 29.76 in 10.0 mi NW 4.6 mph - N/A   Clear
2:35 AM 64.4 °F 64.4 °F 100% 29.76 in 10.0 mi Calm Calm - N/A   Clear
2:55 AM 64.4 °F 64.4 °F 100% 29.77 in 10.0 mi NNW 5.8 mph - N/A   Clear
3:15 AM 64.4 °F 64.4 °F 100% 29.76 in 10.0 mi NNW 3.5 mph - N/A   Clear
3:35 AM 64.4 °F 62.6 °F 94% 29.76 in 10.0 mi North 4.6 mph - N/A   Clear
3:55 AM 64.4 °F 62.6 °F 94% 29.76 in 10.0 mi Calm Calm - N/A   Clear
4:15 AM 62.6 °F 62.6 °F 100% 29.76 in 10.0 mi North 4.6 mph - N/A   Clear
4:35 AM 62.6 °F 62.6 °F 100% 29.77 in 10.0 mi Calm Calm - N/A   Clear
4:55 AM 62.6 °F 62.6 °F 100% 29.77 in 10.0 mi Calm Calm - N/A   Clear
5:15 AM 62.6 °F 62.6 °F 100% 29.78 in 10.0 mi Calm Calm - N/A   Clear
5:35 AM 60.8 °F 60.8 °F 100% 29.78 in 10.0 mi Calm Calm - N/A   Clear
5:55 AM 62.6 °F 62.6 °F 100% 29.79 in 10.0 mi Calm Calm - N/A   Clear
6:15 AM 60.8 °F 60.8 °F 100% 29.79 in 10.0 mi Calm Calm - N/A   Clear
6:35 AM 60.8 °F 60.8 °F 100% 29.80 in 10.0 mi Calm Calm - N/A   Clear
6:55 AM 60.8 °F 60.8 °F 100% 29.80 in 10.0 mi Calm Calm - N/A   Clear
7:15 AM 60.8 °F 60.8 °F 100% 29.82 in 10.0 mi Calm Calm - N/A   Clear
7:35 AM 60.8 °F 60.8 °F 100% 29.82 in 10.0 mi Calm Calm - N/A   Clear
7:55 AM 60.8 °F 60.8 °F 100% 29.82 in 10.0 mi Calm Calm - N/A   Clear
8:15 AM 62.6 °F 62.6 °F 100% 29.83 in 10.0 mi Calm Calm - N/A   Clear
8:35 AM 62.6 °F 62.6 °F 100% 29.84 in 10.0 mi Calm Calm - N/A   Clear
8:55 AM 64.4 °F 60.8 °F 88% 29.84 in 10.0 mi North 4.6 mph - N/A   Clear
9:15 AM 66.2 °F 60.8 °F 83% 29.84 in 10.0 mi NNE 6.9 mph - N/A   Clear
9:35 AM 68.0 °F 60.8 °F 78% 29.85 in 10.0 mi North 5.8 mph - N/A   Clear
9:55 AM 68.0 °F 60.8 °F 78% 29.86 in 10.0 mi NNE 3.5 mph - N/A   Clear
10:15 AM 69.8 °F 60.8 °F 73% 29.86 in 10.0 mi NE 5.8 mph - N/A   Clear
10:35 AM 69.8 °F 62.6 °F 78% 29.87 in 10.0 mi East 6.9 mph - N/A   Scattered Clouds
10:55 AM 71.6 °F 60.8 °F 69% 29.87 in 10.0 mi ENE 8.1 mph - N/A   Clear
11:15 AM 71.6 °F 55.4 °F 57% 29.87 in 10.0 mi NE 8.1 mph - N/A   Clear
11:35 AM 73.4 °F 55.4 °F 53% 29.87 in 10.0 mi ENE 6.9 mph - N/A   Clear
11:55 AM 73.4 °F 51.8 °F 47% 29.87 in 10.0 mi NE 12.7 mph 16.1 mph N/A   Clear
12:15 PM 73.4 °F 53.6 °F 50% 29.86 in 10.0 mi NE 9.2 mph 16.1 mph N/A   Clear
12:35 PM 73.4 °F 53.6 °F 50% 29.86 in 10.0 mi East 8.1 mph - N/A   Clear
12:55 PM 75.2 °F 53.6 °F 47% 29.86 in 10.0 mi ENE 6.9 mph - N/A   Clear
1:15 PM 77.0 °F 51.8 °F 41% 29.86 in 10.0 mi NE 8.1 mph 17.3 mph N/A   Clear
1:35 PM 77.0 °F 51.8 °F 41% 29.85 in 10.0 mi ENE 6.9 mph - N/A   Clear
1:55 PM 77.0 °F 51.8 °F 41% 29.85 in 10.0 mi NNE 8.1 mph - N/A   Clear
2:15 PM 77.0 °F 51.8 °F 41% 29.85 in 10.0 mi ENE 8.1 mph - N/A   Clear
2:35 PM 78.8 °F 51.8 °F 39% 29.84 in 10.0 mi ENE 8.1 mph - N/A   Clear
2:55 PM 78.8 °F 51.8 °F 39% 29.83 in 10.0 mi NE 9.2 mph - N/A   Clear
3:15 PM 78.8 °F 53.6 °F 42% 29.83 in 10.0 mi Calm Calm - N/A   Clear
3:35 PM 77.0 °F 53.6 °F 44% 29.83 in 10.0 mi NNE 3.5 mph - N/A   Clear
3:55 PM 77.0 °F 55.4 °F 47% 29.83 in 10.0 mi Calm Calm - N/A   Scattered Clouds
4:15 PM 78.8 °F 55.4 °F 44% 29.82 in 10.0 mi Calm Calm - N/A   Mostly Cloudy
4:35 PM 78.8 °F 55.4 °F 44% 29.83 in 10.0 mi NE 4.6 mph - N/A   Mostly Cloudy
4:55 PM 77.0 °F 57.2 °F 50% 29.83 in 10.0 mi NNE 3.5 mph - N/A   Scattered Clouds
5:15 PM 78.8 °F 55.4 °F 44% 29.82 in 10.0 mi NNW 3.5 mph - N/A   Clear
5:35 PM 78.8 °F 55.4 °F 44% 29.82 in 10.0 mi Calm Calm - N/A   Clear
5:55 PM 78.8 °F 55.4 °F 44% 29.83 in 10.0 mi Calm Calm - N/A   Clear
6:15 PM 78.8 °F 55.4 °F 44% 29.83 in 10.0 mi Calm Calm - N/A   Clear
6:35 PM 78.8 °F 57.2 °F 47% 29.83 in 10.0 mi Calm Calm - N/A   Clear
6:55 PM 77.0 °F 59.0 °F 54% 29.83 in 10.0 mi Calm Calm - N/A   Clear
7:15 PM 73.4 °F 60.8 °F 65% 29.84 in 10.0 mi Calm Calm - N/A   Clear
7:35 PM 71.6 °F 62.6 °F 73% 29.84 in 10.0 mi Calm Calm - N/A   Clear
7:55 PM 68.0 °F 62.6 °F 83% 29.85 in 10.0 mi Calm Calm - N/A   Clear
8:15 PM 68.0 °F 62.6 °F 83% 29.85 in 10.0 mi Calm Calm - N/A   Clear
8:35 PM 66.2 °F 62.6 °F 88% 29.86 in 10.0 mi Calm Calm - N/A   Clear
8:55 PM 66.2 °F 62.6 °F 88% 29.86 in 10.0 mi Calm Calm - N/A   Clear
9:15 PM 64.4 °F 62.6 °F 94% 29.87 in 10.0 mi Calm Calm - N/A   Clear
9:35 PM 64.4 °F 62.6 °F 94% 29.88 in 10.0 mi Calm Calm - N/A   Clear
9:55 PM 62.6 °F 62.6 °F 100% 29.89 in 10.0 mi Calm Calm - N/A   Clear
10:15 PM 62.6 °F 62.6 °F 100% 29.90 in 10.0 mi Calm Calm - N/A   Scattered Clouds
10:35 PM 62.6 °F 62.6 °F 100% 29.90 in 10.0 mi Calm Calm - N/A   Scattered Clouds
10:55 PM 64.4 °F 62.6 °F 94% 29.91 in 10.0 mi NNW 3.5 mph - N/A   Mostly Cloudy
11:15 PM 64.4 °F 60.8 °F 88% 29.92 in 10.0 mi North 5.8 mph - N/A   Scattered Clouds
11:35 PM 64.4 °F 60.8 °F 88% 29.92 in 10.0 mi North 3.5 mph - N/A   Clear
11:55 PM 64.4 °F 60.8 °F 88% 29.92 in 10.0 mi Calm Calm - N/A   Scattered Clouds